Theta_e
354 358 360 362 360 360 359 358 358 358 359 358 358 357 357 356 357 357 356 356 354 353 353 353 352 351 351 352 354 354 354 352
356 357 360 361 360 360 359 358 358 358 359 359 359 358 357 356 356 356 355 355 355 355 354 353 351 352 353 354 353 354 353 351
355 356 358 360 359 359 359 358 357 358 359 359 359 357 357 356 356 355 356 356 357 356 355 354 354 355 353 352 353 353 353 351
356 356 356 356 357 359 358 357 357 357 358 357 357 356 356 356 356 356 357 358 357 357 356 354 354 352 352 352 352 351 352 353
353 354 354 354 354 353 354 358 358 358 358 357 357 356 355 356 356 356 355 357 357 356 355 353 353 352 352 350 351 352 354 355
350 351 352 352 352 351 352 354 357 357 357 356 355 355 353 348 350 351 353 354 356 355 353 352 352 352 351 351 350 353 353 346
345 347 350 350 350 350 350 350 349 351 350 348 347 347 345 343 343 348 350 353 353 353 353 351 350 352 350 340 342 347 343 341
344 346 347 349 349 347 346 347 346 344 345 344 343 342 339 339 338 340 337 337 340 345 340 337 338 343 342 342 342 341 343 344
342 344 346 348 347 343 346 346 344 343 340 338 339 339 335 333 333 334 335 335 337 334 331 336 342 345 343 342 341 339 340 345
341 344 345 346 345 343 343 342 341 337 336 335 335 337 335 332 334 335 333 334 333 333 332 342 344 341 341 339 339 340 340 344
342 343 345 345 343 343 340 338 338 334 334 334 334 336 335 333 335 335 332 330 331 337 342 343 339 337 336 337 338 341 343 342
339 342 342 342 340 340 337 336 335 333 333 332 335 338 338 336 336 334 331 333 340 342 340 337 336 336 337 337 335 337 340 340
336 337 339 342 337 336 334 333 332 331 333 334 338 338 340 340 336 337 342 341 342 339 337 337 336 335 334 330 330 330 327 325
334 334 335 335 334 332 329 330 330 332 336 337 339 339 340 340 339 344 342 339 339 338 338 337 334 334 322 321 326 322 320 317
333 333 333 332 330 328 331 331 333 334 337 340 341 341 341 347 347 342 340 339 338 334 331 333 319 317 318 318 320 317 315 314
333 333 332 330 328 329 334 334 335 334 339 342 344 346 347 346 343 341 339 335 330 325 322 327 321 313 313 314 314 313 311 311
333 336 333 331 331 330 336 338 337 340 340 342 342 342 342 341 338 338 334 328 324 320 319 318 317 314 311 311 311 307 303 305
334 337 336 334 338 336 340 341 340 340 338 337 336 334 334 335 333 332 326 323 320 318 316 314 314 311 308 309 308 305 300 298
334 336 337 337 340 342 341 340 339 337 334 333 330 327 326 328 326 325 322 320 317 316 314 313 313 309 308 307 308 309 306 305
Wind_Speed
13 21 21 24 21 21 19 19 18 19 16 16 16 15 15 14 12 10 9 8 8 8 6 4 1 1 5 7 8 8 10 10
16 15 19 24 23 22 21 20 19 18 17 16 15 16 14 13 11 10 9 8 7 6 4 2 1 3 6 8 9 9 11 12
13 16 18 21 22 22 21 20 19 18 16 15 14 14 14 13 12 11 10 9 7 5 3 2 3 5 7 10 10 11 12 12
13 15 14 14 17 22 20 20 19 17 16 15 14 14 13 13 12 10 9 7 6 5 3 4 6 7 8 10 11 12 13 13
12 15 15 13 12 11 12 18 18 17 16 14 14 13 13 12 11 9 8 6 5 5 5 5 8 8 8 9 11 13 13 7
9 12 15 15 12 10 8 12 15 17 16 15 13 13 9 4 5 7 5 6 6 6 4 7 9 9 8 7 8 10 7 4
17 14 15 16 14 12 9 8 6 7 5 5 5 6 4 4 4 3 4 5 6 5 4 7 9 9 6 3 3 7 3 5
17 14 17 16 13 12 10 5 3 3 4 4 5 5 4 3 2 2 1 1 2 3 2 4 4 3 5 3 4 4 3 6
21 18 19 18 14 12 7 7 6 5 3 3 4 5 4 3 3 3 2 1 2 1 2 2 1 4 5 6 5 2 5 6
19 19 19 18 14 9 9 7 6 4 4 4 4 4 3 3 3 2 1 2 2 2 1 2 3 2 4 5 4 6 7 8
16 18 16 15 13 11 9 8 6 5 5 4 4 5 5 3 2 3 1 2 2 3 2 3 3 3 4 4 6 8 8 7
20 17 16 15 11 11 10 8 6 6 5 4 4 6 6 5 3 4 3 3 3 3 4 3 3 4 5 4 6 5 5 5
10 18 15 14 12 11 8 7 5 5 5 5 5 4 6 5 5 5 4 3 3 4 2 3 4 4 3 4 4 4 4 4
9 11 14 13 14 11 8 6 6 7 5 5 4 5 6 6 6 6 4 4 4 4 3 4 4 3 4 4 7 5 5 5
7 9 11 10 12 11 7 6 4 4 4 4 4 4 6 5 8 7 5 5 3 3 4 4 5 5 3 5 8 7 5 5
8 11 9 10 11 10 8 7 4 4 4 4 4 7 6 6 6 8 5 5 3 4 3 3 3 5 5 3 5 6 4 5
16 14 11 9 9 7 7 4 4 5 4 4 6 7 6 8 6 6 7 5 5 5 5 4 4 3 3 4 3 3 2 4
15 14 13 11 10 8 8 8 8 8 6 5 5 6 5 7 6 7 6 5 6 4 4 3 3 6 4 4 4 4 2 3
13 9 13 13 8 7 11 10 15 10 10 3 4 5 6 5 7 7 6 6 6 4 5 3 2 4 4 4 3 5 5 3
Wind_Direction
160 154 164 174 170 162 167 160 158 157 157 150 148 146 143 140 138 144 151 161 161 166 158 162 167 342 328 328 324 320 310 314
153 156 161 172 167 165 166 166 165 161 160 156 157 153 149 144 146 155 161 172 176 174 164 182 266 322 307 302 304 308 307 326
160 153 164 172 165 167 167 169 168 163 163 160 160 158 154 151 160 167 171 179 186 182 200 243 281 283 293 305 321 318 308 316
158 156 165 170 172 168 170 172 170 165 164 163 161 163 158 159 169 174 179 188 188 200 220 267 283 296 313 321 314 309 312 321
160 161 162 168 170 171 170 175 170 166 164 163 164 164 164 168 173 183 181 201 209 233 248 288 300 307 311 309 313 314 320 338
165 173 170 167 167 164 172 178 174 171 167 165 168 167 169 163 174 183 185 215 238 259 312 315 300 299 302 321 323 337 15 31
170 178 177 177 168 161 167 174 162 166 161 155 158 167 164 159 156 188 193 237 257 278 324 301 302 316 320 347 20 16 19 55
168 171 184 179 170 165 163 151 147 133 149 160 159 163 172 141 153 208 155 256 280 287 291 307 336 19 38 46 49 31 39 66
175 177 182 179 171 177 159 161 157 149 152 153 170 164 161 152 171 212 184 236 239 257 257 304 38 23 60 43 36 42 65 80
174 178 185 177 175 168 162 157 155 147 164 159 168 171 170 169 183 224 192 215 236 250 194 129 67 55 50 43 22 49 82 99
178 180 179 179 174 162 158 162 159 143 152 158 168 179 193 188 199 218 158 105 158 123 129 110 111 77 53 45 44 61 89 98
185 169 177 173 165 167 159 158 159 161 156 165 184 185 190 190 211 159 135 140 150 121 118 115 75 58 51 49 61 78 91 105
219 168 167 170 168 167 159 163 159 152 148 178 187 175 184 175 156 142 129 128 122 117 138 85 65 62 53 52 69 67 66 63
194 178 169 170 169 166 151 155 149 155 169 181 166 162 167 152 152 128 126 121 130 121 81 77 56 82 49 62 90 61 45 40
209 181 168 167 167 162 154 140 140 151 154 150 151 145 142 134 126 117 108 104 100 93 71 74 83 47 77 87 94 69 47 40
191 178 169 178 174 158 160 154 132 135 116 95 103 110 123 110 115 110 109 101 99 85 81 109 101 75 50 39 97 74 37 27
177 181 171 172 160 170 167 151 131 130 96 102 108 99 108 108 112 112 119 121 101 93 84 99 102 108 73 13 120 88 109 345
184 179 179 174 161 173 150 122 105 99 96 92 92 88 73 95 97 108 104 107 95 96 99 86 125 116 122 21 60 135 101 196
190 199 173 170 121 152 153 145 146 145 136 107 115 103 85 75 94 96 101 99 95 98 93 95 91 100 116 132 66 31 58 135